Regional Weather Roundup
Issued by NWS

Home | Current Version | Previous Version | Text Only | Print | Product List | Glossary On
Versions: 1 2 3 4 5 6 7 8 9 10 11 12 13 14 15 16 17 18 19 20 21 22 23 24 25 26 27 28 29 30 31 32 33 34 35 36 37 38 39 40 41 42 43 44 45 46 47 48 49 50
862
ASUS42 KKEY 051610
RWRKEY

FLORIDA REGIONAL WEATHER ROUNDUP FOR THE FLORIDA KEYS
NATIONAL WEATHER SERVICE KEY WEST FLORIDA
1100 AM EST MON DEC 05 2016

...SOUTH FLORIDA AND THE KEYS...

CITY           SKY/WX    TMP DP  RH WIND       PRES   REMARKS
FORT MYERS     SUNNY     83  71  67 S12       30.00F
SW REGIONAL AP MOSUNNY   83  69  62 S16       30.01F
NAPLES         MOSUNNY   83  71  67 S15G26    30.01R
MIAMI          PTSUNNY   82  72  71 SE13G25   30.03F
WEST KENDALL   MOSUNNY   82  70  66 SE15G24   30.03F
HOMESTEAD      PTSUNNY   81  74  77 SE15      30.03F
MARATHON       SUNNY     84  72  67 SE10      30.02F
BOCA CHICA NAS MOSUNNY   82  73  74 SE17G25   30.01S
KEY WEST INTL  SUNNY     81  75  82 SE16      30.01F

...INTERNATIONAL WEATHER...

CITY           SKY/WX    TMP DP  RH WIND       PRES   REMARKS
NASSAU BAHAMAS PTSUNNY   79  68  69 E10       30.07F
CANCUN MEXICO  PTSUNNY   84  77  79 SE18      29.89F HX  94
COZUMEL MEXICO PTSUNNY   86  77  74 SE9       29.89S HX  97

ADJACENT COASTAL WATERS...

STATION/POSITION TIME  SKY/WX   TEMP    WIND        PRES    WAVE
                                AIR SEA DIR/SP/G            HT/PER
                 (UTC)          (F)     (DEG/KT/KT) (MB)    (FT/S)
PULASKI SHOAL LI 1600            79     150/ 20/ 22 1015.7F
SAND KEY         1550            78     160/ 17/ 21 1016.6R
LONG KEY         1600            79 77  150/ 16/ 18 1016.9F
FOWEY ROCKS      1600            78 78  130/ 20/ 22 1017.6F

$$




USA.gov is the U.S. government's official web portal to all federal, state and local government web resources and services.